Погода в Широком Буераке

Россия / Саратовская область     52°07′00″N   47°46′00″E
темп.,
°C
ветер,
м/с
пор.,
м/с
влажн.,
%
обл.,
%
осадки,
мм/ч
давл.,
гПа
погр.,
м
17 июня, чт
чт1701:00+20зсз47863 0.0 1010117
04:00+19ссз410915 0.0 1012249
07:00+20с58844 0.0 1013386
10:00+23ссв786145 0.0 1015868
13:00+24ссв78450 0.0 10171261
16:00+24ссв78440 0.0 10181399
19:00+22св47570 0.0 1019609
22:00+17св33710 0.0 102027
18 июня, пт
пт1801:00+15с33800 0.0 102136
04:00+14с33823 0.0 102250
07:00+17ссв4107171 0.0 1023428
10:00+20св810535 0.0 1024904
13:00+21св77470 0.0 10251454
16:00+21св78420 0.0 10251526
19:00+20св58540 0.0 1025665
22:00+15св35680 0.0 102667
19 июня, сб
сб1901:00+13ссв34746 0.0 102757
04:00+12ссв33805 0.0 102831
07:00+15св347193 0.0 1029210
10:00+20св44550 0.0 1029795
13:00+22св33453 0.0 10281108
16:00+24ссв22442 0.0 10271029
19:00+22св12531 0.0 1026286
22:00+18с11615 0.0 102611
20 июня, вс
вс2001:00+16ссз11650 0.0 102611
04:00+16сз11700 0.0 102611
07:00+19сз12660 0.0 1026110
10:00+24с22540 0.0 1025627
13:00+28с12470 0.0 10241415
16:00+29ссв23450 0.0 10231716
19:00+27всв33590 0.0 1022222
22:00+22ссв11690 0.0 102311
21 июня, пн
пн2101:00+20ссз11770 0.0 102211
04:00+19ссв22848 0.0 102211
07:00+22св2274100 0.0 1023138
10:00+26св2259100 0.0 1023671
13:00+29св224931 0.0 10221627
16:00+30всв22452 0.0 10201743
19:00+29всв23558 0.0 1020169
22:00+23св22650 0.0 102011